JOHN2 Weather Reports


Display with metric or nautical units.
time (UTC)temp
F
wind
direction
speed
MPH
gust
MPH
rain 1hr
in
rain 24hr
in
rain mn
in
humidity
%
barometer
mb
20260504082004 44 254 0.0 0.0 0.00 0.00 0.00 68 1014.8
20260504081504 44 254 0.0 0.0 0.00 0.00 0.00 70 1014.9
20260504081003 44 254 0.0 0.0 0.00 0.00 0.00 69 1014.9
20260504080505 44 254 0.0 0.0 0.00 0.00 0.00 68 1014.9
20260504050541 50 267 5.0 9.0 0.00 0.00 0.00 51 1014.8
20260504045540 50 263 6.0 8.0 0.00 0.00 0.00 51 1014.9
20260504045039 50 261 5.0 8.0 0.00 0.00 0.00 53 1014.9
20260504044543 50 262 4.0 7.0 0.00 0.00 0.00 53 1014.9
20260504044039 50 263 4.0 7.0 0.00 0.00 0.00 52 1014.9
20260504043538 50 269 4.0 7.0 0.00 0.00 0.00 52 1014.9
20260504043049 50 271 4.0 7.0 0.00 0.00 0.00 52 1014.8
20260504042535 50 277 5.0 7.0 0.00 0.00 0.00 52 1014.8
20260504042035 50 273 5.0 7.0 0.00 0.00 0.00 52 1014.8
20260504041536 50 262 3.0 6.0 0.00 0.00 0.00 52 1014.8
20260504041034 50 257 3.0 6.0 0.00 0.00 0.00 52 1014.8
20260504040534 51 257 3.0 7.0 0.00 0.00 0.00 51 1014.8
20260504040033 51 260 4.0 8.0 0.00 0.00 0.00 49 1014.7
20260504035534 51 275 5.0 8.0 0.00 0.00 0.00 49 1014.7
20260504035034 51 262 5.0 7.0 0.00 0.00 0.00 48 1014.8
20260504034540 52 257 3.0 7.0 0.00 0.00 0.00 48 1014.7
20260504034034 52 263 4.0 7.0 0.00 0.00 0.00 48 1014.6
20260504033534 52 262 5.0 7.0 0.00 0.00 0.00 47 1014.7
20260504033032 52 259 4.0 7.0 0.00 0.00 0.00 47 1014.6
20260504032532 52 246 2.0 7.0 0.00 0.00 0.00 48 1014.7
20260504032032 52 250 3.0 8.0 0.00 0.00 0.00 47 1014.6
20260504031537 53 261 5.0 8.0 0.00 0.00 0.00 47 1014.5
20260504031032 53 254 3.0 7.0 0.00 0.00 0.00 47 1014.4
20260504030532 53 258 4.0 7.0 0.00 0.00 0.00 47 1014.4
20260504030039 53 248 3.0 5.0 0.00 0.00 0.00 47 1014.4
20260504025532 53 260 3.0 6.0 0.00 0.00 0.00 47 1014.4
20260504025032 53 262 4.0 6.0 0.00 0.00 0.00 46 1014.4
20260504024535 53 262 4.0 6.0 0.00 0.00 0.00 46 1014.4
20260504024031 53 258 3.0 6.0 0.00 0.00 0.00 45 1014.4
20260504023531 54 253 3.0 5.0 0.00 0.00 0.00 44 1014.4
20260504023031 54 252 3.0 5.0 0.00 0.00 0.00 45 1014.5
20260504022531 54 256 2.0 4.0 0.00 0.00 0.00 45 1014.4
20260504022031 54 256 2.0 4.0 0.00 0.00 0.00 45 1014.4
20260504021540 54 258 3.0 6.0 0.00 0.00 0.00 44 1014.4
20260504021030 54 257 3.0 5.0 0.00 0.00 0.00 44 1014.4
20260504020530 54 243 2.0 5.0 0.00 0.00 0.00 44 1014.4
20260504020036 54 244 2.0 5.0 0.00 0.00 0.00 44 1014.4
20260504015530 54 250 3.0 5.0 0.00 0.00 0.00 44 1014.4
20260504015030 54 252 2.0 4.0 0.00 0.00 0.00 43 1014.4
20260504014530 55 259 3.0 6.0 0.00 0.00 0.00 43 1014.3
20260504014030 55 259 3.0 6.0 0.00 0.00 0.00 43 1014.3
20260504013532 55 258 3.0 6.0 0.00 0.00 0.00 42 1014.3
20260504013035 55 258 3.0 6.0 0.00 0.00 0.00 42 1014.2
20260504012529 55 257 3.0 7.0 0.00 0.00 0.00 41 1014.2
20260504012029 56 258 4.0 7.0 0.00 0.00 0.00 41 1014.2
20260504011529 56 250 3.0 5.0 0.00 0.00 0.00 41 1014.2
20260504011032 56 252 0.0 4.0 0.00 0.00 0.00 41 1014.1
20260504010528 56 259 0.0 3.0 0.00 0.00 0.00 41 1014.0
20260504010029 56 259 1.0 4.0 0.00 0.00 0.00 41 1014.1
20260504005530 56 259 2.0 4.0 0.00 0.00 0.00 40 1014.1
20260504005029 57 259 1.0 4.0 0.00 0.00 0.00 40 1014.1
20260504004539 57 263 2.0 8.0 0.00 0.00 0.00 39 1014.1
20260504004030 57 264 3.0 8.0 0.00 0.00 0.00 38 1014.0
20260504003529 57 277 3.0 7.0 0.00 0.00 0.00 38 1013.9
20260504003027 57 274 3.0 8.0 0.00 0.00 0.00 38 1013.8
20260504002527 57 275 5.0 9.0 0.00 0.00 0.00 37 1013.8
20260504002029 58 275 6.0 10.0 0.00 0.00 0.00 37 1013.7
20260504001534 58 277 6.0 10.0 0.00 0.00 0.00 37 1013.7
20260504001028 58 267 5.0 12.0 0.00 0.00 0.00 37 1013.7
20260504000527 58 276 8.0 14.0 0.00 0.00 0.00 36 1013.6
20260504000028 58 288 6.0 14.0 0.00 0.00 0.00 36 1013.5
20260503235527 58 287 7.0 12.0 0.00 0.00 0.00 36 1013.5
20260503235027 59 265 7.0 12.0 0.00 0.00 0.00 35 1013.4
20260503234528 59 290 7.0 11.0 0.00 0.00 0.00 35 1013.3
20260503234027 59 275 7.0 14.0 0.00 0.00 0.00 35 1013.3
20260503233526 59 263 9.0 14.0 0.00 0.00 0.00 34 1013.3
20260503233026 59 259 9.0 12.0 0.00 0.00 0.00 35 1013.3
20260503232526 59 248 8.0 13.0 0.00 0.00 0.00 34 1013.3
20260503232026 59 284 10.0 16.0 0.00 0.00 0.00 34 1013.3
20260503231526 59 296 11.0 17.0 0.00 0.00 0.00 34 1013.3
20260503231027 59 293 10.0 17.0 0.00 0.00 0.00 34 1013.2
20260503230525 59 283 9.0 16.0 0.00 0.00 0.00 34 1013.2
20260503230026 60 296 12.0 18.0 0.00 0.00 0.00 34 1013.2
20260503225525 60 273 10.0 18.0 0.00 0.00 0.00 34 1013.2
20260503225025 60 278 8.0 16.0 0.00 0.00 0.00 34 1013.1
20260503224525 60 289 9.0 17.0 0.00 0.00 0.00 34 1013.1
20260503224025 60 298 12.0 17.0 0.00 0.00 0.00 33 1013.1
20260503223528 60 284 7.0 15.0 0.00 0.00 0.00 35 1013.2
20260503223024 60 281 10.0 18.0 0.00 0.00 0.00 34 1013.2
20260503222523 60 290 12.0 18.0 0.00 0.00 0.00 35 1013.1
20260503222023 59 300 10.0 17.0 0.00 0.00 0.00 35 1013.2
20260503221524 60 286 10.0 17.0 0.00 0.00 0.00 34 1013.2
20260503221026 60 289 8.0 20.0 0.00 0.00 0.00 35 1013.2
20260503220626 60 274 10.0 20.0 0.00 0.00 0.00 35 1013.3
20260503220031 60 275 11.0 21.0 0.00 0.00 0.00 34 1013.3
20260503215523 60 285 15.0 21.0 0.00 0.00 0.00 34 1013.3
20260503215022 59 301 11.0 19.0 0.00 0.00 0.00 35 1013.3
20260503214532 59 265 12.0 19.0 0.00 0.00 0.00 34 1013.2
20260503214022 59 271 9.0 15.0 0.00 0.00 0.00 36 1013.2
20260503213522 59 296 10.0 19.0 0.00 0.00 0.00 34 1013.2
20260503213030 59 301 10.0 21.0 0.00 0.00 0.00 35 1013.2
20260503212521 59 280 14.0 21.0 0.00 0.00 0.00 35 1013.2
20260503212020 59 297 7.0 17.0 0.00 0.00 0.00 35 1013.1
20260503211520 59 294 10.0 16.0 0.00 0.00 0.00 35 1013.2
20260503211019 59 309 2.0 18.0 0.00 0.00 0.00 37 1013.1
20260503210519 59 285 11.0 20.0 0.00 0.00 0.00 35 1013.2
20260503210020 59 291 11.0 20.0 0.00 0.00 0.00 35 1013.2
20260503205519 59 275 13.0 20.0 0.00 0.00 0.00 35 1013.2
20260503205021 59 275 10.0 17.0 0.00 0.00 0.00 35 1013.2
20260503204526 59 288 8.0 20.0 0.00 0.00 0.00 35 1013.2
20260503204017 59 307 13.0 20.0 0.00 0.00 0.00 35 1013.2
20260503203521 59 252 11.0 17.0 0.00 0.00 0.00 35 1013.3
20260503203016 58 286 9.0 17.0 0.00 0.00 0.00 36 1013.2
20260503202521 58 294 7.0 15.0 0.00 0.00 0.00 36 1013.3
20260503202015 58 307 6.0 15.0 0.00 0.00 0.00 37 1013.3
20260503201515 58 294 10.0 20.0 0.00 0.00 0.00 36 1013.4
20260503201016 58 305 12.0 20.0 0.00 0.00 0.00 36 1013.3
20260503200514 58 331 9.0 21.0 0.00 0.00 0.00 36 1013.4
20260503200014 58 267 13.0 21.0 0.00 0.00 0.00 35 1013.5
20260503195512 58 299 6.0 14.0 0.00 0.00 0.00 36 1013.4
20260503195012 58 296 7.0 14.0 0.00 0.00 0.00 35 1013.5
20260503194512 58 303 7.0 22.0 0.00 0.00 0.00 35 1013.6
20260503194013 58 285 13.0 22.0 0.00 0.00 0.00 36 1013.8
20260503193512 57 298 9.0 22.0 0.00 0.00 0.00 35 1013.8
20260503193011 57 304 14.0 22.0 0.00 0.00 0.00 35 1013.8
20260503192510 57 334 11.0 17.0 0.00 0.00 0.00 35 1014.0
20260503192013 57 284 8.0 18.0 0.00 0.00 0.00 36 1014.0
20260503191510 57 304 10.0 19.0 0.00 0.00 0.00 36 1014.0
20260503191009 57 283 11.0 20.0 0.00 0.00 0.00 36 1014.1
20260503190509 57 268 10.0 18.0 0.00 0.00 0.00 36 1014.1
20260503190016 56 252 8.0 17.0 0.00 0.00 0.00 36 1014.1
20260503185508 56 289 11.0 17.0 0.00 0.00 0.00 36 1014.3
20260503185008 56 300 8.0 17.0 0.00 0.00 0.00 36 1014.4
20260503184512 56 341 11.0 17.0 0.00 0.00 0.00 36 1014.4
20260503184008 57 336 7.0 18.0 0.00 0.00 0.00 36 1014.5
20260503183506 56 297 9.0 18.0 0.00 0.00 0.00 37 1014.6
20260503183006 56 288 7.0 15.0 0.00 0.00 0.00 38 1014.7
20260503182505 55 302 7.0 15.0 0.00 0.00 0.00 35 1014.7
20260503182006 56 298 8.0 16.0 0.00 0.00 0.00 36 1014.7
20260503181515 55 284 7.0 20.0 0.00 0.00 0.00 36 1014.7
20260503181005 56 298 11.0 19.0 0.00 0.00 0.00 37 1014.7
20260503180505 56 339 8.0 19.0 0.00 0.00 0.00 36 1014.7
20260503180013 56 355 7.0 17.0 0.00 0.00 0.00 37 1014.7
20260503175504 55 307 9.0 22.0 0.00 0.00 0.00 37 1014.8
20260503175002 55 270 14.0 22.0 0.00 0.00 0.00 36 1014.8
20260503174502 55 296 12.0 19.0 0.00 0.00 0.00 39 1014.9
20260503174004 54 321 11.0 19.0 0.00 0.00 0.00 39 1014.9
20260503173601 54 275 13.0 19.0 0.00 0.00 0.00 37 1014.8
20260503173110 54 282 9.0 18.0 0.00 0.00 0.00 39 1014.8
20260503172601 54 288 11.0 22.0 0.00 0.00 0.00 40 1014.9
20260503172059 54 294 14.0 22.0 0.00 0.00 0.00 38 1015.0
20260503171559 54 313 10.0 21.0 0.00 0.00 0.00 39 1015.1
20260503171057 53 313 7.0 20.0 0.00 0.00 0.00 41 1015.1
20260503170600 53 315 11.0 16.0 0.00 0.00 0.00 39 1015.2
20260503170107 53 300 6.0 15.0 0.00 0.00 0.00 42 1015.2
20260503150543 49 288 6.0 21.0 0.00 0.00 0.00 43 1016.2
20260503131029 45 316 6.0 14.0 0.00 0.00 0.00 55 1016.7
20260503130531 45 304 6.0 19.0 0.00 0.00 0.00 55 1016.6
20260503110526 42 342 7.0 16.0 0.00 0.00 0.00 62 1015.8